Amman, Jordan

10:13 AM EET on February 09, 2016 (GMT +0200)
Marka International

Weather History for OJAM - May, 2013

Change the Weather History Date:

Sunday, May 5, 2013

  Actual Average Record
Temperature  
Mean Temperature 75 °F -  
Max Temperature 85 °F 80 °F - (-1)
Min Temperature 65 °F 59 °F - (-1)
Cooling Degree Days 10    
Growing Degree Days 25 (Base 50)    
Moisture  
Dew Point 28 °F    
Average Humidity 16    
Maximum Humidity 31    
Minimum Humidity 5    
Precipitation  
Precipitation 0.00 in 0.00 in - ()
Sea Level Pressure  
Sea Level Pressure 29.92 in    
Wind  
Wind Speed 3 mph ()    
Max Wind Speed 12 mph    
Max Gust Speed -    
Visibility 3.3 miles    
Events      
Averages and records for this station are not official NWS values.
T = Trace of Precipitation, MM = Missing Value Source: Averaged Metar Reports

Daily Weather History Graph

Daily Weather History Graph

Search for Another Location

Airport or City:

Trip Planner

Search our weather history database for the weather conditions in past years. The results will help you decide how hot, cold, wet, or windy it might be!

Date:

Astronomy

May. 05, 2013 Rise Set
Actual Time 5:46 AM EEST 7:19 PM EEST
Civil Twilight 5:20 AM EEST 7:45 PM EEST
Nautical Twilight 4:49 AM EEST 8:17 PM EEST
Astronomical Twilight 4:16 AM EEST 8:50 PM EEST
Moon 2:49 AM EEST (5/5) 3:11 PM EEST (5/5)
Length of Visible Light 14h 25m
Length of Day
13h 32m
Waning Crescent, 21% of the Moon is Illuminated
May 5
Waning Crescent
May 10
New
May 18
First Quarter
May 25
Full
May 31
Last Quarter

Hourly Weather History & Observations

Time (EEST) Temp. Dew Point Humidity Pressure Visibility Wind Dir Wind Speed Gust Speed Precip Events Conditions
12:00 AM 73 °F 21 °F 7% 29.85 in 3 mi Calm Calm - -   Haze
12:00 AM 73.4 °F 21.2 °F 14% 29.95 in 3.1 mi Calm Calm - N/A   Haze
1:00 AM 71.6 °F 23.0 °F 16% 29.95 in 3.1 mi Calm Calm - N/A   Haze
2:00 AM 71.6 °F 24.8 °F 17% 29.95 in 3.1 mi Calm Calm - N/A   Haze
3:00 AM 68 °F 25 °F 11% 29.80 in 3 mi Calm Calm - -   Haze
3:00 AM 68.0 °F 24.8 °F 20% 29.95 in 3.1 mi Calm Calm - N/A   Haze
4:00 AM 68.0 °F 24.8 °F 20% 29.95 in 3.1 mi Calm Calm - N/A   Haze
5:00 AM 66.2 °F 23.0 °F 19% 29.95 in 3.1 mi Calm Calm - N/A   Haze
6:00 AM 67 °F 27 °F 12% 29.81 in 3 mi Calm Calm - -   Haze
6:00 AM 66.2 °F 26.6 °F 23% 29.95 in 3.1 mi Calm Calm - N/A   Haze
7:00 AM 68.0 °F 28.4 °F 23% 29.95 in 3.1 mi Calm Calm - N/A   Haze
8:00 AM 75.2 °F 28.4 °F 18% 29.95 in 3.7 mi Calm Calm - N/A   Unknown
9:00 AM 79 °F 33 °F 10% 29.81 in 3 mi NW 6.9 mph - -   Haze
9:00 AM 78.8 °F 33.8 °F 20% 29.98 in 3.1 mi NW 6.9 mph - N/A   Haze
10:00 AM 80.6 °F 28.4 °F 15% 29.98 in 3.1 mi NNW 11.5 mph - N/A   Haze
11:00 AM 80.6 °F 30.2 °F 16% 29.98 in 3.7 mi WNW 11.5 mph - N/A   Unknown
12:00 PM 83 °F 22 °F 5% 29.81 in 4 mi West 11.5 mph - -   Haze
12:00 PM 82.4 °F 23.0 °F 11% 29.98 in 3.7 mi West 11.5 mph - N/A   Unknown
1:00 PM 84.2 °F 23.0 °F 11% 29.98 in 3.7 mi NW 11.5 mph - N/A   Unknown
2:00 PM 84.2 °F 23.0 °F 11% 29.98 in 3.7 mi NW 11.5 mph - N/A   Unknown
3:00 PM 83 °F 23 °F 5% 29.82 in 4 mi WNW 6.9 mph - -   Haze
3:00 PM 84.2 °F 23.0 °F 11% 29.95 in 3.7 mi WNW 6.9 mph - N/A   Unknown
4:00 PM 84.2 °F 28.4 °F 13% 29.95 in 3.7 mi West 10.4 mph - N/A   Unknown
5:00 PM 82.4 °F 28.4 °F 14% 29.92 in 3.7 mi NW 9.2 mph - N/A   Unknown
6:00 PM 81 °F 25 °F 6% 29.81 in 3 mi NW 11.5 mph - -   Haze
6:00 PM 80.6 °F 24.8 °F 13% 29.92 in 3.1 mi NW 11.5 mph - N/A   Haze
7:00 PM 77.0 °F 28.4 °F 17% 29.95 in 3.1 mi WNW 9.2 mph - N/A   Haze
8:00 PM 75.2 °F 35.6 °F 24% 29.98 in 3.1 mi NNW 9.2 mph - N/A   Haze
9:00 PM 72 °F 38 °F 18% 29.83 in 3 mi NW 4.6 mph - -   Haze
9:00 PM 71.6 °F 37.4 °F 29% 29.95 in 3.1 mi NW 4.6 mph - N/A   Haze
10:00 PM 71.6 °F 39.2 °F 31% 29.95 in 3.1 mi WNW 5.8 mph - N/A   Haze
11:00 PM 71.6 °F 39.2 °F 31% 29.95 in 3.1 mi WNW 5.8 mph - N/A   Haze